Flag for Ethiopia Weather past 2 weeks in Dire Dawa, Ethiopia

Now
63 °F

Mild.


Feels Like: 63 °F
Forecast: 58 / 94 °F
Wind: 5 mph from Northeast

Location: Addis Ababa Airport

Current Time: Apr 26, 2015 at 4:56:31 AM

Latest Report: Apr 26, 2015 at 4:00 AM


Visibility: N/A

Pressure: 30.30 "Hg

Humidity: 49%

Dew point: 43 °F

Location of Dire DawaLocation

Historic Weather in Dire Dawa — Graph

°F

Dire Dawa temperature yesterday

Maximum temperature yesterday: 81 °F (at 3:00 PM)
Minimum temperature yesterday: 63 °F (at 8:00 AM)
Average temperature yesterday: 74 °F

Past Weeks' High & Low Weather Summary

 TemperatureHumidityPressure
High81 °F (Apr 11, 4:00 PM)82% (Apr 14, 4:00 AM)30.48 "Hg (Apr 14, 4:00 AM)
Low52 °F (Apr 18, 6:00 AM)17% (Apr 17, 1:00 PM)30.21 "Hg (Apr 15, 3:00 PM)
Average68 °F39%30.33 "Hg
* Reported Apr 11 10:00 AM — Apr 26 3:00 AM, Dire Dawa, Weather by CustomWeather, © 2015

Note: Actual official high and low records may vary slightly from our data, if they occured in-between our weather recording intervals... More about our weather records

Advertising

Dire Dawa weather history for previous 24 hours

 ConditionsComfort  
Time TempWeatherWind HumidityBarometerVisibility
3:00 AM
Sun, Apr 26
64 °FPassing clouds.5 mph46%30.27 "HgN/A
2:00 AM66 °FPassing clouds.5 mph37%30.30 "HgN/A
1:00 AM66 °FPassing clouds.7 mph52%30.30 "HgN/A
12:00 AM66 °FPassing clouds.9 mph46%30.30 "HgN/A
11:00 PM
Sat, Apr 25
68 °FPassing clouds.12 mph40%30.33 "HgN/A
8:00 PM72 °FPassing clouds.14 mph36%30.27 "HgN/A
7:00 PM73 °FPassing clouds.16 mph38%30.24 "HgN/A
6:00 PM75 °FPartly sunny.16 mph34%30.24 "HgN/A
4:00 PM79 °FScattered clouds.14 mph30%30.21 "HgN/A
3:00 PM81 °FPartly sunny.18 mph28%30.21 "HgN/A
2:00 PM79 °FPleasantly warm.7 mph32%30.24 "HgN/A
1:00 PM79 °FScattered clouds.6 mph26%30.27 "HgN/A
12:00 PM77 °FPassing clouds.8 mph30%30.30 "HgN/A
11:00 AM73 °FPassing clouds.12 mph33%30.33 "HgN/A
10:00 AM70 °FSmoke.14 mph40%30.36 "HgN/A
9:00 AM68 °FSmoke.12 mph40%30.36 "HgN/A
8:00 AM63 °FScattered clouds.6 mph49%30.36 "HgN/A
Weather by CustomWeather, © 2015

See weather overviewHow to use our weather pages